Location: Fairview
(40.8165°N, 122.7667°W)
Time: 22:52:11
(UTC+00:00)

USA 81 - Pass Details

Date: 11 September 2024
Orbit: 784 x 786 km, 85.0° (Epoch: 06 October)

Event Time Altitude Azimuth Distance (km) Brightness Sun altitude
Rises 13:18:07 0° 137° (SE) 3,266 7.7 -6.5°
Reaches altitude 10° 13:21:22 10° 116° (ESE) 2,342 7.4 -5.9°
Maximum altitude 13:24:25 16° 80° (E) 1,969 7.7 -5.3°
Drops below altitude 10° 13:27:29 10° 44° (NE) 2,352 7.5 -4.8°
Sets 13:30:44 0° 24° (NNE) 3,285 7.8 -4.2°
